Location: Newark
(49.3000°N, 9.4667°E)
Time: 03:27:18
(UTC+00:00)

Tiros 1 - Pass Details

Date: 27 May 2019
Orbit: 631 x 664 km, 48.4° (Epoch: 16 June)

Event Time Altitude Azimuth Distance (km) Brightness Sun altitude
Rises 15:20:38 0° 277° (W) 2,957 11.5 35.2°
Reaches altitude 10° 15:24:32 10° 245° (WSW) 2,051 11.0 34.6°
Maximum altitude 15:26:07 12° 225° (SW) 1,948 10.5 34.3°
Drops below altitude 10° 15:27:42 10° 205° (SSW) 2,054 10.2 34.0°
Sets 15:31:38 0° 173° (S) 2,967 10.6 33.4°
